Time,TemperatureF,DewpointF,PressureIn,WindDirection,WindDirectionDegrees,WindSpeedMPH,WindSpeedGustMPH,Humidity,HourlyPrecipIn,Conditions,Clouds,dailyrainin,SoftwareType,DateUTC
2013-08-30 00:01:00,68.8,51.5,29.87,ENE,61,0.0,9.0,54,0.00,,---,0.00,VWS V14.01,2013-08-30 07:01:00,
2013-08-30 00:06:00,68.7,51.9,29.87,ENE,62,0.0,9.0,55,0.00,,---,0.00,VWS V14.01,2013-08-30 07:06:00,
2013-08-30 00:11:00,68.7,51.4,29.87,ENE,63,0.0,9.0,54,0.00,,---,0.00,VWS V14.01,2013-08-30 07:11:00,
2013-08-30 00:16:00,68.6,51.3,29.87,ENE,63,1.0,9.0,54,0.00,,---,0.00,VWS V14.01,2013-08-30 07:16:00,
2013-08-30 00:21:00,68.6,51.3,29.87,ENE,63,0.0,9.0,54,0.00,,---,0.00,VWS V14.01,2013-08-30 07:21:00,
2013-08-30 00:26:00,68.7,50.9,29.87,ENE,61,0.0,9.0,53,0.00,,---,0.00,VWS V14.01,2013-08-30 07:26:00,
2013-08-30 00:31:00,68.6,50.8,29.87,ENE,61,0.0,9.0,53,0.00,,---,0.00,VWS V14.01,2013-08-30 07:31:00,
2013-08-30 00:36:00,68.6,50.8,29.87,ENE,61,0.0,9.0,53,0.00,,---,0.00,VWS V14.01,2013-08-30 07:36:00,
2013-08-30 00:41:00,68.5,50.7,29.87,ENE,61,0.0,9.0,53,0.00,,---,0.00,VWS V14.01,2013-08-30 07:41:00,
2013-08-30 00:46:00,68.4,50.6,29.87,ENE,62,0.0,9.0,53,0.00,,---,0.00,VWS V14.01,2013-08-30 07:46:00,
2013-08-30 00:51:00,68.3,50.5,29.87,ENE,61,0.0,9.0,53,0.00,,---,0.00,VWS V14.01,2013-08-30 07:51:00,
2013-08-30 00:57:00,68.2,50.9,29.87,ENE,63,0.0,9.0,54,0.00,,---,0.00,VWS V14.01,2013-08-30 07:57:00,
2013-08-30 01:02:00,68.2,50.9,29.87,ENE,62,0.0,9.0,54,0.00,,---,0.00,VWS V14.01,2013-08-30 08:02:00,
2013-08-30 01:07:00,68.1,50.8,29.87,ENE,62,0.0,9.0,54,0.00,,---,0.00,VWS V14.01,2013-08-30 08:07:00,
2013-08-30 01:12:00,68.0,50.2,29.87,ENE,61,0.0,9.0,53,0.00,,---,0.00,VWS V14.01,2013-08-30 08:12:00,
2013-08-30 01:17:00,67.9,50.7,29.87,ENE,63,0.0,9.0,54,0.00,,---,0.00,VWS V14.01,2013-08-30 08:17:00,
2013-08-30 01:22:00,67.7,50.0,29.87,ENE,63,0.0,9.0,53,0.00,,---,0.00,VWS V14.01,2013-08-30 08:22:00,
2013-08-30 01:27:00,67.7,50.5,29.87,ENE,61,0.0,9.0,54,0.00,,---,0.00,VWS V14.01,2013-08-30 08:27:00,
2013-08-30 01:32:00,67.6,50.4,29.87,ENE,63,0.0,9.0,54,0.00,,---,0.00,VWS V14.01,2013-08-30 08:32:00,
2013-08-30 01:37:00,67.5,50.3,29.87,ENE,62,0.0,9.0,54,0.00,,---,0.00,VWS V14.01,2013-08-30 08:37:00,
2013-08-30 01:42:00,67.3,50.6,29.87,ENE,62,0.0,9.0,55,0.00,,---,0.00,VWS V14.01,2013-08-30 08:42:00,
2013-08-30 01:47:00,67.2,50.5,29.87,ENE,61,0.0,9.0,55,0.00,,---,0.00,VWS V14.01,2013-08-30 08:47:00,
2013-08-30 01:52:00,67.0,49.8,29.87,ENE,61,0.0,9.0,54,0.00,,---,0.00,VWS V14.01,2013-08-30 08:52:00,
2013-08-30 01:57:00,67.0,49.8,29.86,ENE,62,0.0,9.0,54,0.00,,---,0.00,VWS V14.01,2013-08-30 08:57:00,
2013-08-30 02:02:00,66.8,49.6,29.86,ENE,63,0.0,9.0,54,0.00,,---,0.00,VWS V14.01,2013-08-30 09:02:00,
2013-08-30 02:07:00,66.7,49.5,29.87,ENE,63,0.0,9.0,54,0.00,,---,0.00,VWS V14.01,2013-08-30 09:07:00,
2013-08-30 02:12:00,66.6,50.0,29.86,ENE,61,0.0,9.0,55,0.00,,---,0.00,VWS V14.01,2013-08-30 09:12:00,
2013-08-30 02:17:00,66.5,49.8,29.86,ENE,61,0.0,9.0,55,0.00,,---,0.00,VWS V14.01,2013-08-30 09:17:00,
2013-08-30 02:22:00,66.2,49.6,29.86,ENE,62,0.0,9.0,55,0.00,,---,0.00,VWS V14.01,2013-08-30 09:22:00,
2013-08-30 02:27:00,66.1,49.5,29.86,ENE,61,0.0,9.0,55,0.00,,---,0.00,VWS V14.01,2013-08-30 09:27:00,
2013-08-30 02:32:00,66.0,49.9,29.86,NE,55,0.0,9.0,56,0.00,,---,0.00,VWS V14.01,2013-08-30 09:32:00,
2013-08-30 02:37:00,66.0,49.4,29.86,NE,52,0.0,9.0,55,0.00,,---,0.00,VWS V14.01,2013-08-30 09:37:00,
2013-08-30 02:42:00,65.9,49.3,29.86,ENE,62,0.0,9.0,55,0.00,,---,0.00,VWS V14.01,2013-08-30 09:42:00,
2013-08-30 02:47:00,65.9,49.3,29.86,East,89,0.0,9.0,55,0.00,,---,0.00,VWS V14.01,2013-08-30 09:47:00,
2013-08-30 02:52:00,65.8,49.7,29.86,NNE,25,0.0,9.0,56,0.00,,---,0.00,VWS V14.01,2013-08-30 09:52:00,
2013-08-30 02:57:00,65.7,49.6,29.86,NNE,24,0.0,9.0,56,0.00,,---,0.00,VWS V14.01,2013-08-30 09:57:00,
2013-08-30 03:02:00,65.6,49.5,29.86,NNE,25,0.0,9.0,56,0.00,,---,0.00,VWS V14.01,2013-08-30 10:02:00,
2013-08-30 03:08:00,65.4,49.3,29.86,East,90,0.0,9.0,56,0.00,,---,0.00,VWS V14.01,2013-08-30 10:08:00,
2013-08-30 03:13:00,65.3,49.2,29.85,ENE,68,0.0,9.0,56,0.00,,---,0.00,VWS V14.01,2013-08-30 10:13:00,
2013-08-30 03:18:00,65.2,49.1,29.86,East,94,0.0,9.0,56,0.00,,---,0.00,VWS V14.01,2013-08-30 10:18:00,
2013-08-30 03:23:00,65.2,49.1,29.86,East,94,0.0,9.0,56,0.00,,---,0.00,VWS V14.01,2013-08-30 10:23:00,
2013-08-30 03:28:00,65.1,49.5,29.86,NE,42,0.0,9.0,57,0.00,,---,0.00,VWS V14.01,2013-08-30 10:28:00,
2013-08-30 03:33:00,65.2,49.1,29.85,North,355,0.0,9.0,56,0.00,,---,0.00,VWS V14.01,2013-08-30 10:33:00,
2013-08-30 03:38:00,65.2,49.6,29.85,North,355,0.0,9.0,57,0.00,,---,0.00,VWS V14.01,2013-08-30 10:38:00,
2013-08-30 03:43:00,65.2,49.1,29.86,ENE,75,1.0,9.0,56,0.00,,---,0.00,VWS V14.01,2013-08-30 10:43:00,
2013-08-30 03:48:00,65.2,49.1,29.85,ENE,76,0.0,9.0,56,0.00,,---,0.00,VWS V14.01,2013-08-30 10:48:00,
2013-08-30 03:53:00,65.0,48.9,29.85,ENE,74,0.0,9.0,56,0.00,,---,0.00,VWS V14.01,2013-08-30 10:53:00,
2013-08-30 03:58:00,65.0,49.4,29.85,ENE,76,0.0,9.0,57,0.00,,---,0.00,VWS V14.01,2013-08-30 10:58:00,
2013-08-30 04:03:00,64.9,49.3,29.85,ENE,74,0.0,9.0,57,0.00,,---,0.00,VWS V14.01,2013-08-30 11:03:00,
2013-08-30 04:08:00,64.8,48.8,29.85,ESE,102,0.0,9.0,56,0.00,,---,0.00,VWS V14.01,2013-08-30 11:08:00,
2013-08-30 04:13:00,64.8,49.2,29.85,ENE,72,0.0,9.0,57,0.00,,---,0.00,VWS V14.01,2013-08-30 11:13:00,
2013-08-30 04:18:00,64.8,49.2,29.85,ESE,109,0.0,9.0,57,0.00,,---,0.00,VWS V14.01,2013-08-30 11:18:00,
2013-08-30 04:23:00,64.7,48.7,29.85,East,88,0.0,9.0,56,0.00,,---,0.00,VWS V14.01,2013-08-30 11:23:00,
2013-08-30 04:28:00,64.8,48.8,29.85,East,90,1.0,9.0,56,0.00,,---,0.00,VWS V14.01,2013-08-30 11:28:00,
2013-08-30 04:33:00,64.8,48.8,29.85,ENE,59,0.0,9.0,56,0.00,,---,0.00,VWS V14.01,2013-08-30 11:33:00,
2013-08-30 04:38:00,64.8,48.3,29.85,East,82,0.0,9.0,55,0.00,,---,0.00,VWS V14.01,2013-08-30 11:38:00,
2013-08-30 04:43:00,64.8,48.3,29.85,East,99,0.0,9.0,55,0.00,,---,0.00,VWS V14.01,2013-08-30 11:43:00,
2013-08-30 04:48:00,64.9,48.4,29.85,East,81,0.0,9.0,55,0.00,,---,0.00,VWS V14.01,2013-08-30 11:48:00,
2013-08-30 04:53:00,64.9,48.4,29.85,East,95,0.0,9.0,55,0.00,,---,0.00,VWS V14.01,2013-08-30 11:53:00,
2013-08-30 04:58:00,64.9,48.4,29.85,East,92,0.0,9.0,55,0.00,,---,0.00,VWS V14.01,2013-08-30 11:58:00,
2013-08-30 05:03:00,64.9,48.4,29.85,East,85,0.0,9.0,55,0.00,,---,0.00,VWS V14.01,2013-08-30 12:03:00,
2013-08-30 05:08:00,64.9,49.3,29.85,ENE,78,0.0,9.0,57,0.00,,---,0.00,VWS V14.01,2013-08-30 12:08:00,
2013-08-30 05:13:00,64.8,48.8,29.86,North,11,0.0,9.0,56,0.00,,---,0.00,VWS V14.01,2013-08-30 12:13:00,
2013-08-30 05:18:00,64.8,49.7,29.86,NW,313,1.0,9.0,58,0.00,,---,0.00,VWS V14.01,2013-08-30 12:18:00,
2013-08-30 05:24:00,64.6,48.6,29.86,NW,314,0.0,9.0,56,0.00,,---,0.00,VWS V14.01,2013-08-30 12:24:00,
2013-08-30 05:29:00,64.4,49.3,29.86,WNW,300,1.0,9.0,58,0.00,,---,0.00,VWS V14.01,2013-08-30 12:29:00,
2013-08-30 05:34:00,64.1,49.5,29.86,WNW,300,0.0,9.0,59,0.00,,---,0.00,VWS V14.01,2013-08-30 12:34:00,
2013-08-30 05:39:00,64.0,49.4,29.86,WNW,300,0.0,9.0,59,0.00,,---,0.00,VWS V14.01,2013-08-30 12:39:00,
2013-08-30 05:44:00,63.8,49.2,29.86,WNW,299,0.0,9.0,59,0.00,,---,0.00,VWS V14.01,2013-08-30 12:44:00,
2013-08-30 05:49:00,63.6,48.6,29.86,WNW,300,0.0,9.0,58,0.00,,---,0.00,VWS V14.01,2013-08-30 12:49:00,
2013-08-30 05:54:00,63.5,48.9,29.86,WNW,300,0.0,9.0,59,0.00,,---,0.00,VWS V14.01,2013-08-30 12:54:00,
2013-08-30 05:59:00,63.5,48.9,29.86,WNW,300,0.0,9.0,59,0.00,,---,0.00,VWS V14.01,2013-08-30 12:59:00,
2013-08-30 06:04:00,63.3,48.7,29.86,WNW,300,0.0,9.0,59,0.00,,---,0.00,VWS V14.01,2013-08-30 13:04:00,
2013-08-30 06:09:00,63.2,48.7,29.87,WNW,300,0.0,9.0,59,0.00,,---,0.00,VWS V14.01,2013-08-30 13:09:00,
2013-08-30 06:14:00,63.0,48.9,29.87,WNW,299,0.0,9.0,60,0.00,,---,0.00,VWS V14.01,2013-08-30 13:14:00,
2013-08-30 06:19:00,62.8,48.7,29.87,NW,325,0.0,9.0,60,0.00,,---,0.00,VWS V14.01,2013-08-30 13:19:00,
2013-08-30 06:24:00,62.7,48.6,29.87,NNW,333,0.0,9.0,60,0.00,,---,0.00,VWS V14.01,2013-08-30 13:24:00,
2013-08-30 06:29:00,62.7,49.1,29.87,NNW,338,0.0,9.0,61,0.00,,---,0.00,VWS V14.01,2013-08-30 13:29:00,
2013-08-30 06:34:00,62.6,49.0,29.87,East,81,0.0,9.0,61,0.00,,---,0.00,VWS V14.01,2013-08-30 13:34:00,
2013-08-30 06:39:00,62.6,49.0,29.87,North,355,0.0,9.0,61,0.00,,---,0.00,VWS V14.01,2013-08-30 13:39:00,
2013-08-30 06:44:00,62.7,49.5,29.87,North,350,0.0,9.0,62,0.00,,---,0.00,VWS V14.01,2013-08-30 13:44:00,
2013-08-30 06:49:00,62.7,49.1,29.87,North,350,0.0,9.0,61,0.00,,---,0.00,VWS V14.01,2013-08-30 13:49:00,
2013-08-30 06:54:00,62.7,49.1,29.87,ENE,63,0.0,9.0,61,0.00,,---,0.00,VWS V14.01,2013-08-30 13:54:00,
2013-08-30 06:59:00,62.6,49.4,29.88,NW,325,0.0,9.0,62,0.00,,---,0.00,VWS V14.01,2013-08-30 13:59:00,
2013-08-30 07:04:00,62.6,49.0,29.88,NW,323,0.0,9.0,61,0.00,,---,0.00,VWS V14.01,2013-08-30 14:04:00,
2013-08-30 07:09:00,62.7,49.1,29.88,NW,321,0.0,9.0,61,0.00,,---,0.00,VWS V14.01,2013-08-30 14:09:00,
2013-08-30 07:14:00,62.8,49.2,29.88,NNW,335,0.0,9.0,61,0.00,,---,0.00,VWS V14.01,2013-08-30 14:14:00,
2013-08-30 07:19:00,62.9,49.7,29.88,North,9,0.0,9.0,62,0.00,,---,0.00,VWS V14.01,2013-08-30 14:19:00,
2013-08-30 07:24:00,63.0,48.9,29.88,NE,46,0.0,9.0,60,0.00,,---,0.00,VWS V14.01,2013-08-30 14:24:00,
2013-08-30 07:30:00,63.2,49.5,29.88,NE,46,0.0,9.0,61,0.00,,---,0.00,VWS V14.01,2013-08-30 14:30:00,
2013-08-30 07:35:00,63.2,49.5,29.88,NE,46,0.0,9.0,61,0.00,,---,0.00,VWS V14.01,2013-08-30 14:35:00,
2013-08-30 07:40:00,63.4,49.7,29.88,NE,47,0.0,9.0,61,0.00,,---,0.00,VWS V14.01,2013-08-30 14:40:00,
2013-08-30 07:45:00,63.6,50.4,29.88,NE,48,0.0,9.0,62,0.00,,---,0.00,VWS V14.01,2013-08-30 14:45:00,
2013-08-30 07:50:00,63.9,50.2,29.88,NE,48,0.0,9.0,61,0.00,,---,0.00,VWS V14.01,2013-08-30 14:50:00,
2013-08-30 07:55:00,64.1,50.4,29.89,NE,48,0.0,9.0,61,0.00,,---,0.00,VWS V14.01,2013-08-30 14:55:00,
2013-08-30 08:00:00,64.4,50.7,29.89,NE,46,0.0,9.0,61,0.00,,---,0.00,VWS V14.01,2013-08-30 15:00:00,
2013-08-30 08:05:00,64.7,50.5,29.89,NE,48,0.0,9.0,60,0.00,,---,0.00,VWS V14.01,2013-08-30 15:05:00,
2013-08-30 08:10:00,65.0,51.7,29.89,NE,48,0.0,9.0,62,0.00,,---,0.00,VWS V14.01,2013-08-30 15:10:00,
2013-08-30 08:15:00,65.3,49.7,29.89,NE,48,1.0,9.0,57,0.00,,---,0.00,VWS V14.01,2013-08-30 15:15:00,
2013-08-30 08:20:00,65.7,50.1,29.89,ENE,76,0.0,9.0,57,0.00,,---,0.00,VWS V14.01,2013-08-30 15:20:00,
2013-08-30 08:25:00,66.3,51.1,29.89,ENE,76,0.0,9.0,58,0.00,,---,0.00,VWS V14.01,2013-08-30 15:25:00,
2013-08-30 08:30:00,66.8,51.6,29.89,ENE,76,0.0,9.0,58,0.00,,---,0.00,VWS V14.01,2013-08-30 15:30:00,
2013-08-30 08:35:00,67.3,51.1,29.89,ENE,75,0.0,9.0,56,0.00,,---,0.00,VWS V14.01,2013-08-30 15:35:00,
2013-08-30 08:40:00,67.8,51.5,29.89,ENE,77,0.0,9.0,56,0.00,,---,0.00,VWS V14.01,2013-08-30 15:40:00,
2013-08-30 08:46:00,68.2,50.4,29.89,ENE,76,0.0,9.0,53,0.00,,---,0.00,VWS V14.01,2013-08-30 15:46:00,
2013-08-30 08:51:00,68.6,49.8,29.89,ENE,76,0.0,9.0,51,0.00,,---,0.00,VWS V14.01,2013-08-30 15:51:00,
2013-08-30 08:56:00,69.1,51.8,29.89,NE,54,0.0,9.0,54,0.00,,---,0.00,VWS V14.01,2013-08-30 15:56:00,
2013-08-30 09:01:00,69.5,51.1,29.89,NE,54,0.0,9.0,52,0.00,,---,0.00,VWS V14.01,2013-08-30 16:01:00,
2013-08-30 09:06:00,69.8,50.3,29.89,NE,55,0.0,9.0,50,0.00,,---,0.00,VWS V14.01,2013-08-30 16:06:00,
2013-08-30 09:11:00,70.2,51.2,29.89,NE,54,0.0,9.0,51,0.00,,---,0.00,VWS V14.01,2013-08-30 16:11:00,
2013-08-30 09:16:00,70.7,50.6,29.89,East,87,1.0,9.0,49,0.00,,---,0.00,VWS V14.01,2013-08-30 16:16:00,
2013-08-30 09:21:00,71.3,50.6,29.89,East,87,0.0,9.0,48,0.00,,---,0.00,VWS V14.01,2013-08-30 16:21:00,
2013-08-30 09:26:00,71.8,50.5,29.89,ENE,65,0.0,9.0,47,0.00,,---,0.00,VWS V14.01,2013-08-30 16:26:00,
2013-08-30 09:31:00,72.3,52.1,29.89,ENE,63,0.0,9.0,49,0.00,,---,0.00,VWS V14.01,2013-08-30 16:31:00,
2013-08-30 09:36:00,72.9,52.6,29.89,ENE,63,0.0,9.0,49,0.00,,---,0.00,VWS V14.01,2013-08-30 16:36:00,
2013-08-30 09:41:00,73.7,51.7,29.89,ENE,63,0.0,9.0,46,0.00,,---,0.00,VWS V14.01,2013-08-30 16:41:00,
2013-08-30 09:46:00,74.4,52.3,29.89,ENE,65,0.0,9.0,46,0.00,,---,0.00,VWS V14.01,2013-08-30 16:46:00,
2013-08-30 09:51:00,74.9,52.8,29.89,ENE,67,1.0,9.0,46,0.00,,---,0.00,VWS V14.01,2013-08-30 16:51:00,
2013-08-30 09:56:00,75.5,53.9,29.89,North,5,0.0,9.0,47,0.00,,---,0.00,VWS V14.01,2013-08-30 16:56:00,
2013-08-30 10:01:00,76.0,53.8,29.89,North,10,0.0,9.0,46,0.00,,---,0.00,VWS V14.01,2013-08-30 17:01:00,
2013-08-30 10:06:00,76.5,54.8,29.89,ENE,57,2.0,9.0,47,0.00,,---,0.00,VWS V14.01,2013-08-30 17:06:00,
2013-08-30 10:11:00,76.9,54.6,29.89,NNE,20,1.0,9.0,46,0.00,,---,0.00,VWS V14.01,2013-08-30 17:11:00,
2013-08-30 10:16:00,77.2,54.2,29.89,NNE,16,1.0,9.0,45,0.00,,---,0.00,VWS V14.01,2013-08-30 17:16:00,
2013-08-30 10:21:00,77.7,55.3,29.89,NNW,348,0.0,9.0,46,0.00,,---,0.00,VWS V14.01,2013-08-30 17:21:00,
2013-08-30 10:26:00,78.3,54.6,29.89,NNE,12,2.0,9.0,44,0.00,,---,0.00,VWS V14.01,2013-08-30 17:26:00,
2013-08-30 10:31:00,78.9,54.5,29.89,North,5,0.0,9.0,43,0.00,,---,0.00,VWS V14.01,2013-08-30 17:31:00,
2013-08-30 10:36:00,79.4,54.3,29.89,ENE,71,1.0,9.0,42,0.00,,---,0.00,VWS V14.01,2013-08-30 17:36:00,
2013-08-30 10:41:00,79.7,53.9,29.89,NE,42,0.0,9.0,41,0.00,,---,0.00,VWS V14.01,2013-08-30 17:41:00,
2013-08-30 10:47:00,80.3,54.5,29.89,North,5,0.0,9.0,41,0.00,,---,0.00,VWS V14.01,2013-08-30 17:47:00,
2013-08-30 10:52:00,81.1,56.5,29.88,WNW,298,0.0,9.0,43,0.00,,---,0.00,VWS V14.01,2013-08-30 17:52:00,
2013-08-30 10:57:00,81.8,54.5,29.88,NE,42,1.0,9.0,39,0.00,,---,0.00,VWS V14.01,2013-08-30 17:57:00,
2013-08-30 11:02:00,82.3,55.6,29.88,NNW,346,0.0,9.0,40,0.00,,---,0.00,VWS V14.01,2013-08-30 18:02:00,
2013-08-30 11:07:00,83.0,56.2,29.88,NNE,31,1.0,9.0,40,0.00,,---,0.00,VWS V14.01,2013-08-30 18:07:00,
2013-08-30 11:12:00,83.4,55.2,29.88,NNE,25,0.0,9.0,38,0.00,,---,0.00,VWS V14.01,2013-08-30 18:12:00,
2013-08-30 11:17:00,83.6,55.3,29.88,SW,221,0.0,9.0,38,0.00,,---,0.00,VWS V14.01,2013-08-30 18:17:00,
2013-08-30 11:22:00,83.8,55.5,29.89,NE,44,0.0,9.0,38,0.00,,---,0.00,VWS V14.01,2013-08-30 18:22:00,
2013-08-30 11:27:00,84.3,56.0,29.88,ENE,58,2.0,9.0,38,0.00,,---,0.00,VWS V14.01,2013-08-30 18:27:00,
2013-08-30 11:32:00,84.9,55.0,29.88,North,9,0.0,9.0,36,0.00,,---,0.00,VWS V14.01,2013-08-30 18:32:00,
2013-08-30 11:37:00,85.6,56.4,29.89,North,5,4.0,9.0,37,0.00,,---,0.00,VWS V14.01,2013-08-30 18:37:00,
2013-08-30 11:42:00,86.2,56.1,29.88,West,280,0.0,9.0,36,0.00,,---,0.00,VWS V14.01,2013-08-30 18:42:00,
2013-08-30 11:47:00,86.3,56.2,29.88,West,279,1.0,9.0,36,0.00,,---,0.00,VWS V14.01,2013-08-30 18:47:00,
2013-08-30 11:52:00,86.6,56.5,29.88,NE,46,1.0,9.0,36,0.00,,---,0.00,VWS V14.01,2013-08-30 18:52:00,
2013-08-30 11:57:00,86.8,55.9,29.88,NE,55,0.0,9.0,35,0.00,,---,0.00,VWS V14.01,2013-08-30 18:57:00,
2013-08-30 12:02:00,86.9,56.8,29.88,NNE,19,0.0,9.0,36,0.00,,---,0.00,VWS V14.01,2013-08-30 19:02:00,
2013-08-30 12:07:00,87.6,56.6,29.88,North,355,1.0,9.0,35,0.00,,---,0.00,VWS V14.01,2013-08-30 19:07:00,
2013-08-30 12:12:00,88.1,55.4,29.88,NNE,33,1.0,9.0,33,0.00,,---,0.00,VWS V14.01,2013-08-30 19:12:00,
2013-08-30 12:17:00,88.5,55.8,29.88,NE,40,0.0,9.0,33,0.00,,---,0.00,VWS V14.01,2013-08-30 19:17:00,
2013-08-30 12:23:00,88.6,56.7,29.87,East,98,0.0,9.0,34,0.00,,---,0.00,VWS V14.01,2013-08-30 19:23:00,
2013-08-30 12:28:00,88.9,56.9,29.87,North,355,0.0,9.0,34,0.00,,---,0.00,VWS V14.01,2013-08-30 19:28:00,
2013-08-30 12:33:00,89.1,56.3,29.87,NW,312,0.0,9.0,33,0.00,,---,0.00,VWS V14.01,2013-08-30 19:33:00,
2013-08-30 12:38:00,88.8,58.4,29.87,East,81,3.0,9.0,36,0.00,,---,0.00,VWS V14.01,2013-08-30 19:38:00,
2013-08-30 12:43:00,89.1,57.1,29.87,ENE,75,0.0,9.0,34,0.00,,---,0.00,VWS V14.01,2013-08-30 19:43:00,
2013-08-30 12:48:00,89.8,57.7,29.87,NNE,23,2.0,9.0,34,0.00,,---,0.00,VWS V14.01,2013-08-30 19:48:00,
2013-08-30 12:53:00,90.6,57.6,29.86,East,99,5.0,9.0,33,0.00,,---,0.00,VWS V14.01,2013-08-30 19:53:00,
2013-08-30 12:58:00,90.6,56.7,29.86,NNE,26,1.0,9.0,32,0.00,,---,0.00,VWS V14.01,2013-08-30 19:58:00,
2013-08-30 13:03:00,90.7,56.8,29.86,ENE,63,3.0,9.0,32,0.00,,---,0.00,VWS V14.01,2013-08-30 20:03:00,
2013-08-30 13:08:00,91.2,57.2,29.86,NNW,343,1.0,9.0,32,0.00,,---,0.00,VWS V14.01,2013-08-30 20:08:00,
2013-08-30 13:13:00,91.4,58.3,29.86,NE,36,0.0,9.0,33,0.00,,---,0.00,VWS V14.01,2013-08-30 20:13:00,
2013-08-30 13:18:00,92.0,57.1,29.85,North,360,3.0,9.0,31,0.00,,---,0.00,VWS V14.01,2013-08-30 20:18:00,
2013-08-30 13:23:00,92.6,55.7,29.85,North,355,0.0,9.0,29,0.00,,---,0.00,VWS V14.01,2013-08-30 20:23:00,
2013-08-30 13:28:00,92.7,56.8,29.85,North,9,2.0,9.0,30,0.00,,---,0.00,VWS V14.01,2013-08-30 20:28:00,
2013-08-30 13:33:00,93.2,53.2,29.85,NE,54,2.0,9.0,26,0.00,,---,0.00,VWS V14.01,2013-08-30 20:33:00,
2013-08-30 13:38:00,93.4,55.5,29.85,NE,54,1.0,9.0,28,0.00,,---,0.00,VWS V14.01,2013-08-30 20:38:00,
2013-08-30 13:43:00,93.5,54.5,29.85,NE,46,1.0,9.0,27,0.00,,---,0.00,VWS V14.01,2013-08-30 20:43:00,
2013-08-30 13:48:00,93.7,53.7,29.84,ENE,78,3.0,9.0,26,0.00,,---,0.00,VWS V14.01,2013-08-30 20:48:00,
2013-08-30 13:53:00,93.4,55.5,29.84,East,80,1.0,9.0,28,0.00,,---,0.00,VWS V14.01,2013-08-30 20:53:00,
2013-08-30 13:58:00,93.7,55.7,29.84,NNW,340,1.0,9.0,28,0.00,,---,0.00,VWS V14.01,2013-08-30 20:58:00,
2013-08-30 14:03:00,94.2,54.1,29.84,NNW,327,1.0,9.0,26,0.00,,---,0.00,VWS V14.01,2013-08-30 21:03:00,
2013-08-30 14:08:00,94.6,55.5,29.84,North,360,1.0,9.0,27,0.00,,---,0.00,VWS V14.01,2013-08-30 21:08:00,
2013-08-30 14:14:00,94.6,55.5,29.84,ENE,69,2.0,9.0,27,0.00,,---,0.00,VWS V14.01,2013-08-30 21:14:00,
2013-08-30 14:19:00,94.9,54.7,29.83,North,350,0.0,9.0,26,0.00,,---,0.00,VWS V14.01,2013-08-30 21:19:00,
2013-08-30 14:24:00,95.4,57.2,29.83,West,264,4.0,9.0,28,0.00,,---,0.00,VWS V14.01,2013-08-30 21:24:00,
2013-08-30 14:29:00,95.8,55.5,29.83,North,5,0.0,9.0,26,0.00,,---,0.00,VWS V14.01,2013-08-30 21:29:00,
2013-08-30 14:34:00,96.3,53.7,29.83,North,355,0.0,9.0,24,0.00,,---,0.00,VWS V14.01,2013-08-30 21:34:00,
2013-08-30 14:39:00,96.4,52.6,29.83,ENE,74,3.0,9.0,23,0.00,,---,0.00,VWS V14.01,2013-08-30 21:39:00,
2013-08-30 14:44:00,96.5,53.8,29.82,East,96,2.0,9.0,24,0.00,,---,0.00,VWS V14.01,2013-08-30 21:44:00,
2013-08-30 14:49:00,96.0,53.4,29.82,North,360,0.0,9.0,24,0.00,,---,0.00,VWS V14.01,2013-08-30 21:49:00,
2013-08-30 14:54:00,95.8,53.2,29.82,West,275,2.0,9.0,24,0.00,,---,0.00,VWS V14.01,2013-08-30 21:54:00,
2013-08-30 14:59:00,96.1,54.6,29.82,ENE,77,2.0,9.0,25,0.00,,---,0.00,VWS V14.01,2013-08-30 21:59:00,
2013-08-30 15:04:00,95.9,53.3,29.82,East,94,2.0,9.0,24,0.00,,---,0.00,VWS V14.01,2013-08-30 22:04:00,
2013-08-30 15:09:00,95.0,51.4,29.82,East,96,5.0,9.0,23,0.00,,---,0.00,VWS V14.01,2013-08-30 22:09:00,
2013-08-30 15:14:00,94.7,54.5,29.82,NW,325,0.0,9.0,26,0.00,,---,0.00,VWS V14.01,2013-08-30 22:14:00,
2013-08-30 15:19:00,95.1,53.8,29.81,South,169,0.0,9.0,25,0.00,,---,0.00,VWS V14.01,2013-08-30 22:19:00,
2013-08-30 15:24:00,95.4,54.0,29.81,NNE,29,2.0,9.0,25,0.00,,---,0.00,VWS V14.01,2013-08-30 22:24:00,
2013-08-30 15:29:00,95.7,53.2,29.81,NNE,13,1.0,9.0,24,0.00,,---,0.00,VWS V14.01,2013-08-30 22:29:00,
2013-08-30 15:34:00,95.8,52.1,29.81,NE,55,2.0,9.0,23,0.00,,---,0.00,VWS V14.01,2013-08-30 22:34:00,
2013-08-30 15:39:00,95.8,52.1,29.81,West,277,1.0,9.0,23,0.00,,---,0.00,VWS V14.01,2013-08-30 22:39:00,
2013-08-30 15:44:00,95.8,50.9,29.81,NE,38,1.0,9.0,22,0.00,,---,0.00,VWS V14.01,2013-08-30 22:44:00,
2013-08-30 15:49:00,95.8,50.9,29.80,WNW,286,0.0,9.0,22,0.00,,---,0.00,VWS V14.01,2013-08-30 22:49:00,
2013-08-30 15:54:00,95.8,52.1,29.80,NNW,342,0.0,9.0,23,0.00,,---,0.00,VWS V14.01,2013-08-30 22:54:00,
2013-08-30 15:59:00,96.0,52.3,29.80,ESE,107,2.0,9.0,23,0.00,,---,0.00,VWS V14.01,2013-08-30 22:59:00,
2013-08-30 16:04:00,95.7,49.6,29.80,East,82,1.0,9.0,21,0.00,,---,0.00,VWS V14.01,2013-08-30 23:04:00,
2013-08-30 16:09:00,95.1,51.5,29.80,East,90,0.0,9.0,23,0.00,,---,0.00,VWS V14.01,2013-08-30 23:09:00,
2013-08-30 16:14:00,95.1,52.7,29.80,NW,304,2.0,9.0,24,0.00,,---,0.00,VWS V14.01,2013-08-30 23:14:00,
2013-08-30 16:19:00,95.1,52.7,29.79,ENE,74,1.0,9.0,24,0.00,,---,0.00,VWS V14.01,2013-08-30 23:19:00,
2013-08-30 16:25:00,95.0,52.6,29.79,East,85,3.0,9.0,24,0.00,,---,0.00,VWS V14.01,2013-08-30 23:25:00,
2013-08-30 16:30:00,94.8,53.5,29.79,NNE,33,1.0,9.0,25,0.00,,---,0.00,VWS V14.01,2013-08-30 23:30:00,
2013-08-30 16:35:00,94.7,51.2,29.79,NNE,31,4.0,9.0,23,0.00,,---,0.00,VWS V14.01,2013-08-30 23:35:00,
2013-08-30 16:40:00,94.7,51.2,29.79,ENE,70,0.0,9.0,23,0.00,,---,0.00,VWS V14.01,2013-08-30 23:40:00,
2013-08-30 16:45:00,94.6,49.9,29.79,NNE,24,0.0,9.0,22,0.00,,---,0.00,VWS V14.01,2013-08-30 23:45:00,
2013-08-30 16:50:00,94.6,51.1,29.79,NNE,29,1.0,9.0,23,0.00,,---,0.00,VWS V14.01,2013-08-30 23:50:00,
2013-08-30 16:55:00,94.4,50.9,29.78,WNW,296,1.0,9.0,23,0.00,,---,0.00,VWS V14.01,2013-08-30 23:55:00,
2013-08-30 17:00:00,94.4,50.9,29.78,NNW,331,2.0,9.0,23,0.00,,---,0.00,VWS V14.01,2013-08-31 00:00:00,
2013-08-30 17:05:00,94.3,50.8,29.78,NNE,21,0.0,9.0,23,0.00,,---,0.00,VWS V14.01,2013-08-31 00:05:00,
2013-08-30 17:10:00,94.1,50.7,29.78,NE,56,2.0,9.0,23,0.00,,---,0.00,VWS V14.01,2013-08-31 00:10:00,
2013-08-30 17:15:00,93.7,49.2,29.78,ENE,63,1.0,9.0,22,0.00,,---,0.00,VWS V14.01,2013-08-31 00:15:00,
2013-08-30 17:20:00,93.5,50.2,29.78,NW,321,0.0,9.0,23,0.00,,---,0.00,VWS V14.01,2013-08-31 00:20:00,
2013-08-30 17:25:00,93.5,51.3,29.78,ENE,70,0.0,9.0,24,0.00,,---,0.00,VWS V14.01,2013-08-31 00:25:00,
2013-08-30 17:30:00,93.5,51.3,29.78,NE,51,1.0,9.0,24,0.00,,---,0.00,VWS V14.01,2013-08-31 00:30:00,
2013-08-30 17:35:00,93.3,51.2,29.77,North,355,0.0,9.0,24,0.00,,---,0.00,VWS V14.01,2013-08-31 00:35:00,
2013-08-30 17:40:00,93.1,51.0,29.77,NE,39,1.0,9.0,24,0.00,,---,0.00,VWS V14.01,2013-08-31 00:40:00,
2013-08-30 17:45:00,92.9,49.7,29.77,NNE,18,2.0,9.0,23,0.00,,---,0.00,VWS V14.01,2013-08-31 00:45:00,
2013-08-30 17:50:00,92.8,51.8,29.77,North,355,0.0,9.0,25,0.00,,---,0.00,VWS V14.01,2013-08-31 00:50:00,
2013-08-30 17:55:00,92.8,49.6,29.77,NE,52,0.0,9.0,23,0.00,,---,0.00,VWS V14.01,2013-08-31 00:55:00,
2013-08-30 18:00:00,92.6,49.4,29.77,NE,56,0.0,9.0,23,0.00,,---,0.00,VWS V14.01,2013-08-31 01:00:00,
2013-08-30 18:05:00,92.4,49.3,29.77,NE,42,1.0,9.0,23,0.00,,---,0.00,VWS V14.01,2013-08-31 01:05:00,
2013-08-30 18:10:00,92.1,50.2,29.77,ENE,72,0.0,9.0,24,0.00,,---,0.00,VWS V14.01,2013-08-31 01:10:00,
2013-08-30 18:15:00,92.0,50.1,29.77,ENE,69,0.0,9.0,24,0.00,,---,0.00,VWS V14.01,2013-08-31 01:15:00,
2013-08-30 18:21:00,91.9,50.0,29.77,East,80,1.0,9.0,24,0.00,,---,0.00,VWS V14.01,2013-08-31 01:21:00,
2013-08-30 18:26:00,91.7,49.8,29.77,ENE,62,0.0,9.0,24,0.00,,---,0.00,VWS V14.01,2013-08-31 01:26:00,
2013-08-30 18:31:00,91.6,49.7,29.77,NW,310,0.0,9.0,24,0.00,,---,0.00,VWS V14.01,2013-08-31 01:31:00,
2013-08-30 18:36:00,91.4,50.7,29.77,NW,311,0.0,9.0,25,0.00,,---,0.00,VWS V14.01,2013-08-31 01:36:00,
2013-08-30 18:41:00,91.2,49.4,29.77,NE,50,1.0,9.0,24,0.00,,---,0.00,VWS V14.01,2013-08-31 01:41:00,
2013-08-30 18:46:00,91.0,49.2,29.77,ENE,59,0.0,9.0,24,0.00,,---,0.00,VWS V14.01,2013-08-31 01:46:00,
2013-08-30 18:51:00,90.8,50.2,29.76,NE,50,0.0,9.0,25,0.00,,---,0.00,VWS V14.01,2013-08-31 01:51:00,
2013-08-30 18:56:00,90.6,48.9,29.76,NE,51,0.0,9.0,24,0.00,,---,0.00,VWS V14.01,2013-08-31 01:56:00,
2013-08-30 19:01:00,90.4,50.9,29.76,NE,51,0.0,9.0,26,0.00,,---,0.00,VWS V14.01,2013-08-31 02:01:00,
2013-08-30 19:06:00,90.1,51.7,29.76,NE,52,0.0,9.0,27,0.00,,---,0.00,VWS V14.01,2013-08-31 02:06:00,
2013-08-30 19:11:00,89.9,50.5,29.76,NE,51,0.0,9.0,26,0.00,,---,0.00,VWS V14.01,2013-08-31 02:11:00,
2013-08-30 19:16:00,89.7,51.3,29.76,NE,52,0.0,9.0,27,0.00,,---,0.00,VWS V14.01,2013-08-31 02:16:00,
2013-08-30 19:21:00,89.4,51.0,29.76,NE,53,0.0,9.0,27,0.00,,---,0.00,VWS V14.01,2013-08-31 02:21:00,
2013-08-30 19:26:00,89.1,50.8,29.76,NE,50,0.0,9.0,27,0.00,,---,0.00,VWS V14.01,2013-08-31 02:26:00,
2013-08-30 19:31:00,88.7,51.4,29.76,NE,51,0.0,9.0,28,0.00,,---,0.00,VWS V14.01,2013-08-31 02:31:00,
2013-08-30 19:36:00,88.1,52.8,29.76,NE,51,0.0,9.0,30,0.00,,---,0.00,VWS V14.01,2013-08-31 02:36:00,
2013-08-30 19:41:00,87.4,52.2,29.76,NE,51,0.0,9.0,30,0.00,,---,0.00,VWS V14.01,2013-08-31 02:41:00,
2013-08-30 19:46:00,86.6,52.4,29.76,NE,51,0.0,9.0,31,0.00,,---,0.00,VWS V14.01,2013-08-31 02:46:00,
2013-08-30 19:51:00,85.9,50.9,29.76,NE,51,0.0,9.0,30,0.00,,---,0.00,VWS V14.01,2013-08-31 02:51:00,
2013-08-30 19:56:00,85.4,51.4,29.77,NE,52,0.0,9.0,31,0.00,,---,0.00,VWS V14.01,2013-08-31 02:56:00,
2013-08-30 20:01:00,84.9,50.0,29.77,NE,50,0.0,9.0,30,0.00,,---,0.00,VWS V14.01,2013-08-31 03:01:00,
2013-08-30 20:06:00,84.5,49.7,29.77,NE,52,0.0,9.0,30,0.00,,---,0.00,VWS V14.01,2013-08-31 03:06:00,
2013-08-30 20:11:00,84.3,48.6,29.77,NE,53,0.0,9.0,29,0.00,,---,0.00,VWS V14.01,2013-08-31 03:11:00,
2013-08-30 20:16:00,84.1,47.5,29.77,NE,53,0.0,9.0,28,0.00,,---,0.00,VWS V14.01,2013-08-31 03:16:00,
2013-08-30 20:21:00,83.8,49.1,29.77,NE,51,0.0,9.0,30,0.00,,---,0.00,VWS V14.01,2013-08-31 03:21:00,
2013-08-30 20:26:00,83.2,47.7,29.77,NE,52,0.0,9.0,29,0.00,,---,0.00,VWS V14.01,2013-08-31 03:26:00,
2013-08-30 20:30:00,83.0,48.4,29.77,NE,53,0.0,9.0,30,0.00,,---,0.00,VWS V14.01,2013-08-31 03:30:00,
2013-08-30 20:31:00,82.9,49.2,29.77,NE,51,0.0,9.0,31,0.00,,---,0.00,VWS V14.01,2013-08-31 03:31:00,
2013-08-30 20:37:00,82.7,49.9,29.77,NE,51,0.0,9.0,32,0.00,,---,0.00,VWS V14.01,2013-08-31 03:37:00,
2013-08-30 20:42:00,82.5,48.8,29.77,NE,53,0.0,9.0,31,0.00,,---,0.00,VWS V14.01,2013-08-31 03:42:00,
2013-08-30 20:47:00,82.2,49.4,29.77,NE,52,0.0,9.0,32,0.00,,---,0.00,VWS V14.01,2013-08-31 03:47:00,
2013-08-30 20:52:00,82.0,49.3,29.77,NE,53,0.0,9.0,32,0.00,,---,0.00,VWS V14.01,2013-08-31 03:52:00,
2013-08-30 20:57:00,81.8,49.1,29.78,NE,49,0.0,9.0,32,0.00,,---,0.00,VWS V14.01,2013-08-31 03:57:00,
2013-08-30 21:01:00,81.5,48.8,29.78,NE,50,0.0,9.0,32,0.00,,---,0.00,VWS V14.01,2013-08-31 04:01:00,
2013-08-30 21:02:00,81.4,48.7,29.78,NE,53,0.0,9.0,32,0.00,,---,0.00,VWS V14.01,2013-08-31 04:02:00,
2013-08-30 21:07:00,80.7,49.0,29.78,NE,50,0.0,9.0,33,0.00,,---,0.00,VWS V14.01,2013-08-31 04:07:00,
2013-08-30 21:12:00,80.2,48.5,29.78,NE,51,0.0,9.0,33,0.00,,---,0.00,VWS V14.01,2013-08-31 04:12:00,
2013-08-30 21:17:00,79.7,48.9,29.78,NE,53,0.0,9.0,34,0.00,,---,0.00,VWS V14.01,2013-08-31 04:17:00,
2013-08-30 21:22:00,79.3,47.7,29.78,NE,51,0.0,9.0,33,0.00,,---,0.00,VWS V14.01,2013-08-31 04:22:00,
2013-08-30 21:27:00,78.9,48.2,29.78,NE,51,0.0,9.0,34,0.00,,---,0.00,VWS V14.01,2013-08-31 04:27:00,
2013-08-30 21:33:00,78.5,48.6,29.78,NE,52,0.0,9.0,35,0.00,,---,0.00,VWS V14.01,2013-08-31 04:33:00,
2013-08-30 21:38:00,78.1,47.5,29.78,NE,51,0.0,9.0,34,0.00,,---,0.00,VWS V14.01,2013-08-31 04:38:00,
2013-08-30 21:43:00,77.9,48.8,29.78,NW,325,3.0,9.0,36,0.00,,---,0.00,VWS V14.01,2013-08-31 04:43:00,
2013-08-30 21:48:00,77.4,48.4,29.78,SW,215,0.0,9.0,36,0.00,,---,0.00,VWS V14.01,2013-08-31 04:48:00,
2013-08-30 21:53:00,77.1,48.8,29.79,SSW,213,0.0,9.0,37,0.00,,---,0.00,VWS V14.01,2013-08-31 04:53:00,
2013-08-30 21:58:00,76.8,47.8,29.79,SW,214,0.0,9.0,36,0.00,,---,0.00,VWS V14.01,2013-08-31 04:58:00,
2013-08-30 22:03:00,76.7,47.8,29.79,SSW,213,0.0,9.0,36,0.00,,---,0.00,VWS V14.01,2013-08-31 05:03:00,
2013-08-30 22:08:00,76.6,47.7,29.79,SSW,213,0.0,9.0,36,0.00,,---,0.00,VWS V14.01,2013-08-31 05:08:00,
2013-08-30 22:13:00,76.5,48.3,29.79,SW,215,0.0,9.0,37,0.00,,---,0.00,VWS V14.01,2013-08-31 05:13:00,
2013-08-30 22:18:00,76.3,48.8,29.79,SSW,213,0.0,9.0,38,0.00,,---,0.00,VWS V14.01,2013-08-31 05:18:00,
2013-08-30 22:23:00,76.1,48.7,29.79,SW,215,0.0,9.0,38,0.00,,---,0.00,VWS V14.01,2013-08-31 05:23:00,
2013-08-30 22:28:00,75.8,49.1,29.79,SW,214,0.0,9.0,39,0.00,,---,0.00,VWS V14.01,2013-08-31 05:28:00,
2013-08-30 22:33:00,75.7,49.7,29.79,SW,214,0.0,9.0,40,0.00,,---,0.00,VWS V14.01,2013-08-31 05:33:00,
2013-08-30 22:38:00,75.4,49.4,29.79,SW,214,0.0,9.0,40,0.00,,---,0.00,VWS V14.01,2013-08-31 05:38:00,
2013-08-30 22:43:00,75.1,48.5,29.79,SSW,213,0.0,9.0,39,0.00,,---,0.00,VWS V14.01,2013-08-31 05:43:00,
2013-08-30 22:48:00,74.9,48.3,29.79,SW,215,0.0,9.0,39,0.00,,---,0.00,VWS V14.01,2013-08-31 05:48:00,
2013-08-30 22:53:00,74.6,48.7,29.79,SW,215,0.0,9.0,40,0.00,,---,0.00,VWS V14.01,2013-08-31 05:53:00,
2013-08-30 22:58:00,74.4,48.5,29.79,SW,215,0.0,9.0,40,0.00,,---,0.00,VWS V14.01,2013-08-31 05:58:00,
2013-08-30 23:03:00,74.3,48.4,29.79,SW,215,0.0,9.0,40,0.00,,---,0.00,VWS V14.01,2013-08-31 06:03:00,
2013-08-30 23:08:00,74.3,48.4,29.80,SSW,213,0.0,9.0,40,0.00,,---,0.00,VWS V14.01,2013-08-31 06:08:00,
2013-08-30 23:13:00,74.2,49.0,29.80,SW,214,0.0,9.0,41,0.00,,---,0.00,VWS V14.01,2013-08-31 06:13:00,
2013-08-30 23:18:00,74.0,48.8,29.79,SSW,213,0.0,9.0,41,0.00,,---,0.00,VWS V14.01,2013-08-31 06:18:00,
2013-08-30 23:23:00,74.0,48.8,29.79,SW,214,0.0,9.0,41,0.00,,---,0.00,VWS V14.01,2013-08-31 06:23:00,
2013-08-30 23:28:00,73.8,49.3,29.80,SW,215,0.0,9.0,42,0.00,,---,0.00,VWS V14.01,2013-08-31 06:28:00,
2013-08-30 23:33:00,73.6,48.5,29.80,SW,214,0.0,9.0,41,0.00,,---,0.00,VWS V14.01,2013-08-31 06:33:00,
2013-08-30 23:38:00,73.4,48.9,29.80,SW,215,0.0,9.0,42,0.00,,---,0.00,VWS V14.01,2013-08-31 06:38:00,
2013-08-30 23:43:00,73.2,48.8,29.80,SW,214,0.0,9.0,42,0.00,,---,0.00,VWS V14.01,2013-08-31 06:43:00,
2013-08-30 23:48:00,73.1,49.3,29.80,SSW,213,0.0,9.0,43,0.00,,---,0.00,VWS V14.01,2013-08-31 06:48:00,
2013-08-30 23:53:00,73.0,49.2,29.80,SW,215,0.0,9.0,43,0.00,,---,0.00,VWS V14.01,2013-08-31 06:53:00,
2013-08-30 23:58:00,72.8,49.0,29.80,SW,215,0.0,9.0,43,0.00,,---,0.00,VWS V14.01,2013-08-31 06:58:00,